#timestamp,LO_Frequency,Hit,StdDev 
1510984815.9,286046999.0,N
1510984835.7,286047000.0,N
1510984855.5,286046997.5,N
1510984875.4,286046990.1,Y
1510984895.2,286046977.9,P
1510984915.0,286046966.9,N
1510984915.9,286046966.9,N
1510984935.8,286046962.6,N
1510984955.6,286046959.8,N
1510984975.4,286046958.4,N
1510984995.3,286046957.9,N
1510985015.1,286046948.7,Y
1510985035.8,286046978.2,P
1510985055.7,286046976.9,P
1510985075.5,286046968.3,P
1510985095.3,286046972.1,Y
1510985115.2,286046996.3,P
1510985135.0,286046992.9,N
1510985135.9,286046992.9,N
1510985155.7,286046990.2,N
1510985175.6,286046988.6,N
1510985195.4,286046987.8,N
1510985215.2,286046982.5,N
1510985235.1,286046988.0,N
1510985236.0,286046988.0,N
1510985255.8,286046979.3,Y
1510985275.6,286046988.7,P
1510985295.5,286046982.7,P
1510985315.3,286046982.4,P
1510985335.1,286046981.5,Y
1510985355.9,286046994.4,P
1510985375.7,286046990.6,N
1510985395.5,286046987.0,P
1510985415.4,286046982.3,Y
1510985435.2,286046995.2,P
1510985455.0,286046993.2,N
1510985455.9,286046993.2,N
1510985475.8,286046985.7,Y
1510985495.6,286046996.8,P
1510985515.4,286046996.6,N
1510985535.3,286046995.4,N
1510985555.1,286046994.2,Y
1510985575.8,286046997.7,P
1510985595.7,286046997.3,N
1510985615.5,286046993.4,P
1510985635.3,286046999.0,N
1510985655.2,286047001.8,N
1510985675.9,286047003.3,N
1510985695.7,286046998.9,N
1510985715.6,286046991.3,N
1510985735.4,286046990.7,N
1510985755.2,286046988.4,N
1510985775.0,286046987.5,N
1510985776.0,286046987.5,N
1510985795.8,286046985.4,N
1510985815.6,286046985.9,N
1510985835.5,286046982.6,Y
1510985855.3,286046990.4,P
1510985875.1,286046995.2,P
1510985895.8,286046999.9,N
1510985915.7,286047004.1,N
1510985935.5,286047001.2,N
1510985955.3,286046989.4,N
1510985975.2,286046991.0,N
1510985995.0,286046991.2,N
1510985995.9,286046991.2,N
1510986015.7,286046994.8,N
1510986035.6,286046989.7,N
1510986055.4,286046984.1,Y
1510986075.2,286046983.8,P
1510986095.1,286046984.6,N
1510986096.0,286046984.6,P
1510986115.8,286046981.4,Y
1510986135.6,286046987.3,P
1510986155.5,286046983.7,P
1510986175.3,286046977.4,P
1510986195.1,286046972.9,Y
1510986215.9,286046985.8,P
1510986235.7,286046980.9,P
1510986255.5,286046980.2,P
1510986275.4,286046974.4,Y
1510986295.2,286046987.3,P
1510986315.0,286046985.7,P
1510986315.9,286046985.7,P
1510986335.8,286046984.2,Y
1510986355.6,286046998.7,P
1510986375.4,286047000.2,N
1510986395.3,286047002.7,N
1510986415.1,286047000.0,N
1510986435.8,286047000.1,N
1510986455.7,286046999.9,N
1510986475.5,286047000.3,N
1510986495.3,286047004.3,N
1510986515.2,286047003.6,N
1510986535.9,286047001.8,N
1510986555.7,286047002.6,N
1510986575.6,286047004.1,N
1510986595.4,286047005.7,N
1510986615.2,286047005.8,N
1510986635.0,286047004.2,N
1510986635.9,286047004.2,N
1510986655.8,286047002.1,N
1510986675.6,286047004.7,N
1510986695.4,286047006.9,N
1510986715.3,286047007.4,N
1510986735.1,286047001.5,N
1510986755.8,286047000.1,N
1510986775.7,286047001.2,N
1510986795.5,286046994.9,N
1510986815.3,286046993.3,N
1510986835.2,286046993.3,N
1510986855.9,286046994.2,N
1510986875.7,286046993.7,N
1510986895.6,286046993.3,N
1510986915.4,286046995.3,N
1510986935.2,286046993.8,N
1510986955.0,286046994.2,N
1510986956.0,286046994.2,N
1510986975.8,286046993.4,N
1510986995.6,286046998.4,N
1510987015.4,286047009.1,N
1510987035.3,286047017.1,Y
1510987055.1,286047020.1,P
1510987075.8,286047022.7,N
1510987095.7,286047020.3,N
1510987115.5,286047018.3,N
1510987135.3,286047011.0,N
1510987155.2,286047009.0,N
1510987175.9,286047006.1,N
1510987195.7,286047007.6,N
1510987215.6,286047003.8,N
1510987235.4,286047004.5,N
1510987255.2,286047008.6,N
1510987275.1,286047010.3,N
1510987276.0,286047010.3,N
1510987295.8,286047010.1,N
1510987315.6,286047010.7,N
1510987335.5,286047010.7,N
1510987355.3,286047010.3,N
1510987375.1,286047011.8,N
1510987395.8,286047014.9,N
1510987415.7,286047011.4,N
1510987435.5,286047013.4,N
1510987455.3,286047019.5,Y
1510987475.2,286047015.1,P
1510987495.0,286047008.5,P
1510987495.9,286047008.5,P
1510987515.7,286047007.8,N
1510987535.6,286047013.2,Y
1510987555.4,286047002.9,P
1510987575.2,286047006.6,N
1510987595.1,286047006.5,N
1510987596.0,286047006.5,N
1510987615.8,286047009.5,Y
1510987635.6,286047004.3,P
1510987655.5,286047001.5,N
1510987675.3,286047007.0,P
1510987695.1,286047007.1,Y
1510987715.9,286047002.9,P
1510987735.7,286047003.4,P
1510987755.5,286046999.3,N
1510987775.4,286046998.8,N
1510987795.2,286046995.7,N
1510987815.0,286046995.6,N
1510987815.9,286046995.6,N
1510987835.8,286046995.0,N
1510987855.6,286046994.5,N
1510987875.4,286046993.7,N
1510987895.3,286046994.0,N
1510987915.1,286046996.0,N
1510987916.0,286046996.0,N
1510987935.8,286046992.9,N
1510987955.7,286046990.7,N
1510987975.5,286046991.1,N
1510987995.3,286046996.6,N
1510988015.1,286046999.2,N
1510988035.9,286047001.0,N
1510988055.7,286047005.2,N
1510988075.5,286047006.0,N
1510988095.4,286047003.8,N
1510988115.2,286047006.7,N
1510988135.0,286047009.1,N
1510988135.9,286047009.1,N
1510988155.8,286047009.8,N
1510988175.6,286047013.8,N
1510988195.4,286047009.6,N
1510988215.3,286047010.5,N
1510988235.1,286047013.0,N
1510988236.0,286047013.0,N
1510988255.8,286047012.4,N
1510988275.7,286047009.4,N
1510988295.5,286047012.3,N
1510988315.3,286047011.4,N
1510988335.2,286047011.3,N
1510988355.9,286047013.0,N
1510988375.7,286047013.5,N
1510988395.5,286047010.9,N
